Location: Newark
(44.1667°N, 8.2500°E)
Time: 19:06:20
(UTC+00:00)

Vanguard 2 - All Passes

Search period start: 07 December 2019 00:00
Search period end: 17 December 2019 00:00
Orbit: 553 x 2938 km, 32.9° (Epoch: 07 December)

Date Brightness Start Highest point End Pass type
(mag) Time Alt. Az. Time Alt. Az. Time Alt. Az.
07 Dec - 00:42:13 10° SSW 00:56:17 35° SSE 01:10:57 10° E visible
07 Dec - 02:50:34 10° WSW 03:07:21 53° S 03:22:14 10° E visible
07 Dec - 05:01:58 10° W 05:18:47 53° S 05:31:21 10° ESE visible
07 Dec - 07:15:18 10° W 07:28:37 34° SSW 07:38:04 10° SSE daylight
07 Dec - 22:55:00 10° S 23:04:14 19° SE 23:14:28 10° E visible
08 Dec - 00:59:07 10° SW 01:13:50 41° SSE 01:29:15 10° E visible
08 Dec - 03:08:14 10° WSW 03:25:13 55° S 03:40:08 10° ESE visible
08 Dec - 05:20:00 10° W 05:36:33 50° SSW 05:48:55 10° SE visible
08 Dec - 07:33:50 10° W 07:45:56 28° SW 07:54:51 10° SSE daylight
08 Dec - 23:10:30 10° S 23:21:27 24° SE 23:33:57 10° E visible
09 Dec - 01:16:16 10° SW 01:31:29 46° SSE 01:47:25 10° E visible
09 Dec - 03:26:01 10° WSW 03:43:05 56° S 03:57:58 10° ESE visible
09 Dec - 05:38:06 10° W 05:54:13 46° SSW 06:06:21 10° SE visible
09 Dec - 07:52:43 10° W 08:03:08 22° SW 08:11:13 10° S daylight
09 Dec - 23:26:44 10° SSW 23:38:45 30° SE 23:52:48 10° E visible
10 Dec - 01:33:40 10° SW 01:49:13 51° SSE 02:05:28 10° E visible
10 Dec - 03:43:53 10° WSW 04:00:57 56° S 04:15:43 10° ESE visible
10 Dec - 05:56:17 10° W 06:11:47 41° SSW 06:23:36 10° SE visible
10 Dec - 08:12:17 10° W 08:20:14 16° SW 08:26:50 10° SSW daylight
10 Dec - 21:42:06 10° SSE 21:47:34 13° SE 21:53:35 10° ESE night (unlit)
10 Dec - 23:43:25 10° SSW 23:56:09 36° SSE 00:11:19 10° E visible
11 Dec - 01:51:12 10° WSW 02:07:02 54° S 02:23:27 10° E visible
11 Dec - 04:01:50 10° W 04:18:47 54° SSW 04:33:23 10° ESE visible
11 Dec - 06:14:38 10° W 06:29:14 35° SSW 06:40:35 10° SSE visible
11 Dec - 08:33:54 10° WSW 08:37:15 11° SW 08:40:22 10° SW daylight
11 Dec - 21:56:29 10° S 22:04:37 19° SE 22:14:18 10° E night (unlit)
12 Dec - 00:00:25 10° SW 00:13:39 42° SSE 00:29:36 10° E visible
12 Dec - 02:08:53 10° WSW 02:24:52 56° S 02:41:21 10° ESE visible
12 Dec - 04:19:50 10° W 04:36:34 50° SSW 04:50:55 10° SE visible
12 Dec - 06:33:10 10° W 06:46:35 29° SW 06:57:16 10° SSE daylight
12 Dec - 22:12:14 10° S 22:21:46 24° SE 22:33:41 10° E visible
13 Dec - 00:17:39 10° SW 00:31:16 47° SSE 00:47:46 10° E visible
13 Dec - 02:26:40 10° WSW 02:42:45 57° S 02:59:12 10° ESE visible
13 Dec - 04:37:55 10° W 04:54:15 46° SSW 05:08:18 10° SE visible
13 Dec - 06:52:06 10° W 07:03:48 23° SW 07:13:30 10° S daylight
13 Dec - 22:28:38 10° SSW 22:39:00 30° SE 22:52:28 10° E visible
14 Dec - 00:35:05 10° SW 00:48:58 51° SSE 01:05:49 10° E visible
14 Dec - 02:44:31 10° WSW 03:00:38 56° S 03:16:57 10° ESE visible
14 Dec - 04:56:06 10° W 05:11:51 41° SSW 05:25:27 10° SE visible
14 Dec - 07:11:43 10° W 07:20:57 17° SW 07:28:57 10° SSW daylight
14 Dec - 20:44:33 10° SSE 20:48:26 12° SE 20:52:47 10° ESE night (unlit)
14 Dec - 22:45:26 10° SSW 22:56:22 36° SSE 23:10:57 10° E visible
15 Dec - 00:52:40 10° WSW 01:06:45 54° S 01:23:49 10° E visible
15 Dec - 03:02:26 10° W 03:18:28 53° SSW 03:34:36 10° ESE visible
15 Dec - 05:14:27 10° W 05:29:20 35° SSW 05:42:22 10° SSE visible
15 Dec - 07:33:11 10° WSW 07:38:01 12° SW 07:42:31 10° SW daylight
15 Dec - 20:58:54 10° S 21:05:27 17° SE 21:13:37 10° E night (unlit)
15 Dec - 23:02:32 10° SW 23:13:50 42° SSE 23:29:14 10° E visible
16 Dec - 01:10:21 10° WSW 01:24:36 56° S 01:41:45 10° ESE visible
16 Dec - 03:20:26 10° W 03:36:15 49° SSW 03:52:06 10° SE visible
16 Dec - 05:33:02 10° W 05:46:44 29° SW 05:58:53 10° SSE visible
16 Dec - 21:14:45 10° S 21:22:35 23° SE 21:32:57 10° E night (unlit)
16 Dec - 23:19:50 10° SW 23:31:25 47° SSE 23:47:24 10° E visible
